THORAD DELTA 1 DEB, 42599

Orbit data source: Space-Track

THORAD DELTA 1 DEB, 42599 is space debris in SSO originally from a launch on Fri, 15 Nov 1974 UTC launched from the Air Force Western Test Range (AFWTR). Debris objects in space refer to the collection of defunct objects orbiting the Earth. Examples of debris include non-operational satellites, rocket bodies, and fragments generated from explosions, collisions, or faulty payload assembly.

Loading next visibility...
Identifier
42599, 1974-089FQ
Orbit
SSO
Country
Flag of USUS
Related business
Manufacturer
Unknown
Mission
Spacecraft
Bus & Motor
Unknown
Mass
Unknown
Launch date (UTC)
1974-11-15 (51 years ago)
Launch vehicle
Unknown
Launch site
Air Force Western Test Range (AFWTR)
Object type
Payload
Rocket body
Debris
Shape & HBR
Unknown shape, 0.1 m
Radar Cross Section
Small (<0.1 m²)

Expand to show TLE details & history
Last TLE update: 2 days ago

TLE from 2 days ago
0 THORAD DELTA 1 DEB
1 42599U 74089FQ  26022.53735287  .00000467  00000-0  28103-2 0  9992
2 42599 101.5409 123.2338 0047870  57.3412 326.9056 12.63246560548149
Epoch: 2026-01-22T12:53Z
TLE epoch observation values (Epoch: 2026-01-22T12:53:47.287Z)
Latitude
23.45412°
Longitude
162.84032°
Altitude
1,380.949 km
Speed
7.185 km/s
True Right ascension
07h 52m 42s
True Declination
23° 20' 20"
Sunlit
Object was in full shadow at epoch
Visualization orbit readout
Latitude
Unknown
Longitude
Unknown
Altitude
Unknown
Speed
Unknown
Apparent Right ascension
Unknown
Apparent Declination
Unknown
Sunlit
N/A
Visualization observer readout
Local Sidereal Time
03:48:06
Azimuth
Unknown
Elevation
Unknown
Doppler factor
Unknown
Orbital elements
Apogee altitude
1,444.358 km
Perigee altitude
1,369.822 km
Semi-major axis
7,785.227 km
Eccentricity
0.00479
Inclination
101.5409°
RAAN
123.2338°
Arg. of periapsis
57.3412°
True anomaly
326.60457°
Mean anomaly
326.9056°
Eccentric anomaly
326.75524°
Mean motion
3.15963 °/min
Orbital period
113.94 mins
BSTAR
0.0028103
Loading maneuver chart data...
Computing Atmospheric mass density...

Documentation

Showing up to 5 results
|